Regional Weather Roundup
Issued by NWS Charleston, WV

Home | Current Version | Previous Version | Graphics & Text | Print | Product List | Glossary On
Versions: 1 2 3 4 5 6 7 8 9 10 11 12 13 14 15 16 17 18 19 20 21 22 23 24 25 26 27 28 29 30 31 32 33 34 35 36 37 38 39 40 41 42 43 44 45 46 47 48 49 50
000
ASUS41 KRLX 032310
RWRRLX
West Virginia Regional Weather Roundup
National Weather Service Charleston WV
700 PM EDT THU SEP 03 2015

Note: "fair" indicates few or no clouds below 12,000 feet with no
significant weather and/or obstructions to visibility.

WVZ003-040000-
Northern Panhandle of West Virginia

CITY           SKY/WX    TMP DP  RH WIND       PRES   REMARKS
WHEELING       LGT RAIN  71  66  84 N5        29.99F
$$

WVZ009-040000-
Northwest West Virginia

CITY           SKY/WX    TMP DP  RH WIND       PRES   REMARKS
PARKERSBURG    CLOUDY    74  67  78 NE6       30.00S
$$

WVZ006-040000-
Western West Virginia

CITY           SKY/WX    TMP DP  RH WIND       PRES   REMARKS
HUNTINGTON     MOSUNNY   82  65  56 SE6       29.96R
$$

WVZ015-040000-
West Central West Virginia

CITY           SKY/WX    TMP DP  RH WIND       PRES   REMARKS
CHARLESTON     PTCLDY    83  69  62 CALM      29.96R
$$

WVZ022-031-040000-
North Central West Virginia

CITY           SKY/WX    TMP DP  RH WIND       PRES   REMARKS
CLARKSBURG     LGT RAIN  71  66  84 NE5       29.96S
MORGANTOWN     CLOUDY    78  67  68 VRB5      29.98R
$$

WVZ025-035-042-045-040000-
Southern West Virginia

CITY           SKY/WX    TMP DP  RH WIND       PRES   REMARKS
BECKLEY        PTCLDY    78  65  63 N7        30.05R
LOGAN            N/A     81  68  65 CALM      30.00S
BLUEFIELD      MOCLDY    74  61  63 NW5       30.08R
LEWISBURG      PTCLDY    81  62  53 CALM      30.03S
$$

WVZ047-040000-
Northern Mountains of West Virginia

CITY           SKY/WX    TMP DP  RH WIND       PRES   REMARKS
ELKINS         PTCLDY    79  66  64 NW5       30.02R
$$

WVZ052-040000-
Eastern Panhandle of West Virginia

CITY           SKY/WX    TMP DP  RH WIND       PRES   REMARKS
MARTINSBURG    PTCLDY    86  64  47 NW5       29.89R
PETERSBURG     MOCLDY    80  69  70 SE7       29.95R
$$


USA.gov is the U.S. government's official web portal to all federal, state and local government web resources and services.